Location: Astronight Observatory
(42.6003°N, 71.2981°W)
Time: 07:43:02
(UTC-04:00)

Daily predictions for brighter satellites

Satellite Brightness Start Highest point End
(mag) Time Altitude Azimuth Time Altitude Azimuth Time Altitude Azimuth
NOSS 3-4 (A) 3.9 19:45:22 10° NW 19:52:25 90° ENE 19:59:53 10° SSE
NOSS 3-4 (C) 3.9 19:45:30 10° NW 19:52:32 89° NE 20:00:01 10° SE
OAO 2 Rocket 4.4 19:50:15 10° SW 19:54:35 30° SSE 19:58:59 10° ESE
Cosmos 1934 Rocket 4.0 19:52:50 10° S 19:58:54 72° E 20:05:08 10° NNE
Cosmos 2278 3.7 19:54:02 10° S 19:59:37 64° ESE 20:05:16 10° NNE
Meteor 2-4 Rocket 4.2 19:54:56 10° NNW 20:00:46 71° W 20:06:39 10° S
EO 1 Delta rocket 4.2 19:57:26 10° NNE 20:02:00 49° E 20:07:13 10° S
Cosmos 1633 4.1 19:58:52 10° SSW 20:02:20 41° WNW 20:05:49 10° N
Resurs 01 Rocket 2.7 20:02:23 10° S 20:06:41 49° W 20:11:01 10° NNW
NOSS 7 (E) 4.5 20:06:07 10° SW 20:09:32 81° NW 20:12:55 10° NE
Cosmos 1544 Rocket 3.8 20:05:10 10° SSW 20:09:32 76° W 20:13:59 10° N
ALOS 2.3 20:06:09 10° SSE 20:10:49 81° ENE 20:15:31 10° N
Cosmos 2208 Rocket 4.1 20:07:09 10° SSW 20:12:29 89° WNW 20:17:56 10° NNE
Cosmos 2369 3.7 20:08:04 10° SSW 20:13:42 74° ESE 20:19:25 10° NNE
Cosmos 1980 Rocket 3.4 20:11:49 10° SE 20:15:43 19° E 20:19:38 10° NE
Cosmos 1975 3.2 20:12:44 10° SSE 20:16:38 44° E 20:20:33 10° NNE
H-2A R/B 2.7 20:13:19 10° SSE 20:17:11 78° ENE 20:21:09 10° N
Helios 1B rocket 4.2 20:14:46 10° N 20:18:35 37° WNW 20:22:22 10° SW
Cosmos 2298 Rocket 4.4 20:13:41 10° N 20:18:48 45° ENE 20:23:35 11° SE
NOSS 7 (H) 4.2 20:15:35 10° SSW 20:18:53 71° ESE 20:22:19 10° NE
CZ-4B DEB 3.8 20:18:25 10° S 20:21:36 49° W 20:24:49 10° NNW
Lacrosse 5 rocket 1.1 20:19:10 10° NW 20:22:54 75° SW 20:25:57 14° SE
Envisat 3.9 20:20:12 12° SE 20:24:08 31° ENE 20:28:34 10° N
USA 186 1.5 20:21:57 10° SSE 20:25:05 88° ENE 20:27:59 10° N
Okean 2 4.4 20:21:05 10° NNW 20:25:07 48° W 20:29:06 10° SSW
Cosmos 1937 Rocket 4.3 20:20:32 10° N 20:25:21 35° ENE 20:29:04 16° ESE
Iridium 4 Rocket 3.5 20:21:24 10° N 20:26:23 52° E 20:30:53 10° SSE
OTV 4 2.5 20:30:32 10° WSW 20:32:38 18° SSW 20:34:01 14° SSE
Meteor 1-12 Rocket 4.2 20:30:45 10° S 20:36:28 82° E 20:42:21 10° NNE
FENGYUN 3A 4.1 20:31:29 10° S 20:36:47 63° WSW 20:42:06 10° NNW
CZ-2D R/B 4.1 20:33:54 10° S 20:37:40 52° W 20:41:30 10° NNW
Cosmos 1656 3.6 20:35:01 10° SSW 20:40:36 70° ESE 20:46:08 10° NNE
Cosmos 2263 Rocket 4.4 20:39:42 10° NNE 20:40:51 11° NE 20:42:00 10° NE
Cosmos 2173 Rocket 4.4 20:37:01 10° SSE 20:42:58 44° E 20:48:56 10° NNE
Cosmos 2227 Rocket 2.9 20:38:10 10° NNW 20:43:40 53° WSW 20:49:07 10° S
Cosmos 2150 Rocket 4.0 20:39:50 10° NNW 20:44:58 66° ENE 20:48:42 19° SSE
Tiangong 1 0.9 20:43:05 10° W 20:46:11 88° SSW 20:47:24 34° E
Cosmos 1605 Rocket 4.4 20:41:30 10° SSW 20:47:48 70° W 20:54:04 10° N
Cosmos 2322 Rocket 4.2 20:50:52 11° ENE 20:50:52 11° ENE 20:51:12 10° ENE
Cosmos 1825 Rocket 4.1 20:46:38 10° N 20:50:48 38° ENE 20:52:30 27° ESE
Cosmos 1500 3.0 20:47:13 10° S 20:50:57 72° E 20:54:43 10° NNE
ERS-1 Rocket 2.9 20:48:08 15° SSE 20:52:15 72° ENE 20:57:16 10° N
Cosmos 1939 Rocket 3.0 20:49:57 23° SE 20:52:20 58° ENE 20:56:27 10° N
Lacrosse 5 1.9 20:49:07 10° NW 20:54:11 69° NE 20:56:52 27° ESE
Cosmos 2100 Rocket 4.0 20:50:20 10° S 20:56:30 62° E 21:02:38 10° NNE
Cosmos 2297 Rocket 2.8 20:53:27 10° NNW 20:58:58 55° WSW 21:04:20 11° S
DELTA 2 R/B (1) 4.1 20:53:41 10° W 20:58:59 46° SSW 21:01:40 26° SE
Cosmos 1953 Rocket 4.2 20:56:53 10° N 21:01:03 37° ENE 21:02:07 32° ESE
Cosmos 1340 3.2 20:57:45 10° N 21:01:21 39° ENE 21:01:55 36° E
SPOT 5 3.4 21:00:31 29° ESE 21:02:33 43° ENE 21:07:05 10° N
Cosmos 2061 Rocket 4.0 20:57:16 10° S 21:03:28 63° E 21:09:39 10° NNE
YAOGAN 11 4.3 21:00:22 16° S 21:03:58 76° WSW 21:08:27 10° NNW
Cosmos 1898 Rocket 3.6 20:58:51 10° NNW 21:04:10 80° WSW 21:07:49 20° SSE
YAOGAN 6 3.7 21:04:21 28° ENE 21:04:24 28° ENE 21:07:37 10° N
Cosmos 1763 Rocket 3.8 21:01:52 22° SSE 21:04:33 40° ESE 21:09:16 10° NE
H-2A R/B 2.2 21:03:38 36° ESE 21:04:52 49° ENE 21:08:53 10° N
MetOp-A 4.3 21:13:18 34° SE 21:15:21 53° ENE 21:20:33 10° N
RESURS DK-1 2.3 21:15:10 10° NNW 21:19:21 82° WSW 21:20:28 47° SSE
Cosmos 1758 Rocket 3.7 21:15:38 10° N 21:19:52 49° ENE 21:20:18 47° E
USA 215 4.2 21:15:54 18° E 21:20:07 38° NNE 21:26:03 10° NW
Cosmos 468 Rocket 4.2 21:15:10 10° SSW 21:20:16 71° WNW 21:25:24 10° NNE
deb Chang Zheng 4 3.5 21:17:03 10° NNE 21:21:31 68° ESE 21:23:15 36° S
Cosmos 2084 4.2 21:18:33 10° NW 21:22:28 44° WSW 21:23:56 31° S
CZ-4 DEB 4.4 21:22:56 21° SW 21:24:20 30° W 21:27:11 10° NNW
Cosmos 841 Rocket 3.5 21:24:57 34° SSE 21:26:58 57° ESE 21:32:05 10° NNE
Cosmos 1743 2.9 21:26:39 32° SSW 21:28:20 74° W 21:32:16 10° N
Cosmos 1459 Rocket 4.0 21:22:34 10° S 21:28:38 81° W 21:34:46 10° N
Cosmos 1725 Rocket 4.2 21:28:17 38° SE 21:30:06 50° E 21:36:06 10° NNE
Cosmos 1814 Rocket 4.3 21:25:25 10° SSW 21:30:44 69° WNW 21:36:03 10° NNE
Terra 3.5 21:32:32 19° ENE 21:32:32 19° ENE 21:35:29 10° NNE
SL-19 R/B 4.3 21:29:51 10° NNE 21:35:07 48° E 21:35:23 48° ESE
Cosmos 1697 Rocket 3.3 21:30:35 10° SW 21:36:09 58° WNW 21:41:44 10° NNE
OAO 2 Rocket 4.2 21:34:14 10° WSW 21:38:28 34° SSW 21:38:28 34° SSW
SL-16 R/B 3.2 21:46:17 30° ENE 21:46:17 30° ENE 21:49:40 10° NE
Cosmos 2058 Rocket 3.0 21:45:01 73° E 21:45:01 73° E 21:49:26 10° NNE
NOAA 11 4.2 21:46:06 56° ESE 21:46:54 63° ENE 21:52:19 10° N
ASTEX 1 3.4 21:46:21 10° N 21:51:22 80° W 21:52:42 50° SSW
Cosmos 1606 Rocket 4.0 21:50:20 38° SW 21:51:46 59° W 21:56:10 10° N
ARGOS 3.0 21:53:31 65° ESE 21:54:06 71° ENE 21:59:30 10° N
Cosmos 2233 Rocket 4.2 21:55:16 48° E 21:55:17 48° E 22:01:14 10° NNE
Cosmos 1842 3.7 21:51:56 10° N 21:55:11 59° NNW 21:55:11 59° NNW
Cosmos 1980 Rocket 2.6 21:53:34 10° SW 21:59:10 62° WNW 22:04:51 10° NNE
Envisat 4.4 22:00:25 20° SW 22:03:04 32° W 22:07:38 10° NNW
Cosmos 1666 4.2 22:16:27 35° NW 22:16:27 35° NW 22:19:11 10° N
H-2A R/B 2.4 22:17:51 50° NNE 22:17:51 50° NNE 22:21:49 10° N
Meteor 2-5 Rocket 4.1 22:13:10 10° N 22:18:28 52° ENE 22:18:28 52° ENE
Meteor 1-15 Rocket 4.4 22:19:19 53° SW 22:20:38 72° W 22:26:32 10° N
CZ-4B R/B 3.7 22:17:13 10° NNE 22:21:05 59° N 22:21:05 59° N
Cosmos 1375 Rocket 4.4 22:25:11 78° SSE 22:25:28 80° ESE 22:32:06 10° NE
Cosmos 2263 Rocket 2.5 22:20:35 10° NNW 22:25:29 53° NE 22:25:29 53° NE
Cosmos 2322 Rocket 2.3 22:32:37 68° N 22:32:37 68° N 22:37:32 10° NNE
SPOT 1/Viking Rocket 4.3 22:36:08 45° W 22:36:11 45° W 22:41:12 10° NNW
Lacrosse 5 3.7 22:32:56 10° WNW 22:36:04 21° WSW 22:36:04 21° WSW
USA 215 3.2 23:03:14 77° WNW 23:03:14 77° WNW 23:09:20 10° NW
Terra 3.4 23:11:26 32° NW 23:11:26 32° NW 23:14:13 10° NNW
Cosmos 2278 Rocket 4.2 23:09:32 10° N 23:13:01 18° NE 23:13:01 18° NE
SL-16 R/B 3.6 23:28:05 33° WNW 23:28:36 33° NW 23:33:44 10° N
Cosmos 1844 Rocket 4.1 23:33:07 10° NNW 23:36:28 33° N 23:36:28 33° N
Cosmos 2360 Rocket 3.6 23:45:50 35° N 23:45:50 35° N 23:49:09 10° NNE
H-2A R/B 4.5 23:58:29 14° WNW 23:58:29 14° WNW 23:59:48 10° NW
